SHT4YL EGLL-EGAC

Flight info

Callsign SHT4YL
Flight time 0h 51m
Altitude 36000
Route UMLAT1G UMLAT T418 WELIN T420 TNT UL28 RODOL UM65 TENSO L603 BELOX DCT REMSI DCT NINEB M148 MAGEE DCT
Aircraft A320/M-SDE3FGIKRWXY/S

Departure

Time 2026-05-03 20:47
Airport London Heathrow Airport (EGLL)

Arrival

Time 2026-05-03 21:39
Airport George Best Belfast City Airport (EGAC)
Time Latitude Longitude Altitude Speed Heading
2026-05-03 20:15 51.47087 -0.48584 86 ft 0 kts 270°
2026-05-03 20:31 51.47087 -0.48582 86 ft 2 kts 270°
2026-05-03 20:31 51.47087 -0.48543 86 ft 4 kts 270°
2026-05-03 20:31 51.47089 -0.48495 86 ft 4 kts 242°
2026-05-03 20:32 51.47098 -0.48476 89 ft 4 kts 201°
2026-05-03 20:32 51.47122 -0.48472 87 ft 4 kts 180°
2026-05-03 20:32 51.47127 -0.48472 88 ft 0 kts 180°
2026-05-03 20:37 51.47100 -0.48472 88 ft 8 kts 180°
2026-05-03 20:37 51.47075 -0.48471 90 ft 4 kts 179°
2026-05-03 20:38 51.47026 -0.48471 88 ft 9 kts 179°
2026-05-03 20:38 51.46955 -0.48470 88 ft 12 kts 179°
2026-05-03 20:38 51.46863 -0.48469 87 ft 15 kts 180°
2026-05-03 20:38 51.46758 -0.48468 86 ft 15 kts 179°
2026-05-03 20:39 51.46678 -0.48454 87 ft 12 kts 153°
2026-05-03 20:39 51.46653 -0.48321 86 ft 14 kts 89°
2026-05-03 20:39 51.46655 -0.48152 86 ft 16 kts 89°
2026-05-03 20:39 51.46654 -0.47963 86 ft 18 kts 90°
2026-05-03 20:40 51.46655 -0.47764 86 ft 18 kts 89°
2026-05-03 20:40 51.46655 -0.47551 86 ft 20 kts 90°
2026-05-03 20:40 51.46655 -0.47354 86 ft 12 kts 90°
2026-05-03 20:40 51.46656 -0.47214 87 ft 13 kts 89°
2026-05-03 20:41 51.46657 -0.47055 87 ft 15 kts 89°
2026-05-03 20:41 51.46659 -0.46880 90 ft 15 kts 88°
2026-05-03 20:41 51.46661 -0.46705 86 ft 17 kts 90°
2026-05-03 20:41 51.46662 -0.46508 86 ft 19 kts 90°
2026-05-03 20:42 51.46662 -0.46288 86 ft 21 kts 90°
2026-05-03 20:42 51.46662 -0.46057 87 ft 20 kts 89°
2026-05-03 20:42 51.46662 -0.45895 86 ft 13 kts 90°
2026-05-03 20:42 51.46662 -0.45742 86 ft 15 kts 90°
2026-05-03 20:43 51.46662 -0.45571 86 ft 14 kts 89°
2026-05-03 20:43 51.46663 -0.45453 86 ft 9 kts 89°
2026-05-03 20:43 51.46664 -0.45342 86 ft 11 kts 90°
2026-05-03 20:43 51.46664 -0.45209 86 ft 14 kts 89°
2026-05-03 20:44 51.46665 -0.45045 87 ft 14 kts 90°
2026-05-03 20:44 51.46665 -0.44879 87 ft 16 kts 90°
2026-05-03 20:44 51.46665 -0.44692 87 ft 18 kts 90°
2026-05-03 20:44 51.46666 -0.44488 86 ft 14 kts 89°
2026-05-03 20:45 51.46667 -0.44314 86 ft 15 kts 90°
2026-05-03 20:45 51.46666 -0.44178 86 ft 13 kts 90°
2026-05-03 20:45 51.46642 -0.44070 86 ft 5 kts 146°
2026-05-03 20:45 51.46598 -0.44053 89 ft 8 kts 175°
2026-05-03 20:46 51.46535 -0.44051 86 ft 10 kts 180°
2026-05-03 20:46 51.46499 -0.44100 88 ft 8 kts 250°
2026-05-03 20:46 51.46491 -0.44289 87 ft 36 kts 270°
2026-05-03 20:46 51.46486 -0.45160 92 ft 115 kts 269°
2026-05-03 20:47 51.46475 -0.46680 93 ft 163 kts 270°
2026-05-03 20:47 51.46464 -0.48647 574 ft 173 kts 268°
2026-05-03 20:47 51.46485 -0.50592 1285 ft 175 kts 279°
2026-05-03 20:47 51.46946 -0.52440 1827 ft 187 kts 299°
2026-05-03 20:48 51.47625 -0.54332 2277 ft 204 kts 299°
2026-05-03 20:48 51.48348 -0.56443 2672 ft 229 kts 298°
2026-05-03 20:48 51.49125 -0.58818 3202 ft 251 kts 297°
2026-05-03 20:48 51.49966 -0.61395 3884 ft 267 kts 297°
2026-05-03 20:49 51.50823 -0.64071 4857 ft 272 kts 296°
2026-05-03 20:49 51.51907 -0.66584 5628 ft 280 kts 316°
2026-05-03 20:49 51.53582 -0.68069 5895 ft 279 kts 347°
2026-05-03 20:49 51.55516 -0.68271 5987 ft 279 kts 359°
2026-05-03 20:50 51.57452 -0.68342 6002 ft 278 kts 358°
2026-05-03 20:50 51.59380 -0.68507 6002 ft 277 kts 356°
2026-05-03 20:50 51.61303 -0.68713 6001 ft 277 kts 356°
2026-05-03 20:50 51.63227 -0.68937 6001 ft 277 kts 355°
2026-05-03 20:51 51.65150 -0.69165 5999 ft 277 kts 355°
2026-05-03 20:51 51.67071 -0.69391 5999 ft 277 kts 355°
2026-05-03 20:51 51.68996 -0.69614 5998 ft 277 kts 356°
2026-05-03 20:51 51.70920 -0.69834 5997 ft 277 kts 356°
2026-05-03 20:52 51.72845 -0.70049 5998 ft 277 kts 356°
2026-05-03 20:52 51.74771 -0.70263 5997 ft 277 kts 356°
2026-05-03 20:52 51.76695 -0.70481 5998 ft 277 kts 356°
2026-05-03 20:52 51.78618 -0.70698 6007 ft 278 kts 356°
2026-05-03 20:53 51.80575 -0.70916 6685 ft 282 kts 356°
2026-05-03 20:53 51.82539 -0.71136 7686 ft 284 kts 355°
2026-05-03 20:53 51.84526 -0.71361 8605 ft 288 kts 355°
2026-05-03 20:53 51.86543 -0.71589 9506 ft 293 kts 354°
2026-05-03 20:54 51.88599 -0.71821 10203 ft 304 kts 354°
2026-05-03 20:54 51.93132 -0.72348 10909 ft 343 kts 354°
2026-05-03 20:54 51.95535 -0.72626 11590 ft 349 kts 354°
2026-05-03 20:55 51.97980 -0.72900 12309 ft 354 kts 354°
2026-05-03 20:55 52.00457 -0.73175 13047 ft 359 kts 354°
2026-05-03 20:55 52.02922 -0.73854 13768 ft 362 kts 342°
2026-05-03 20:55 52.05334 -0.75090 14430 ft 365 kts 340°
2026-05-03 20:56 52.07760 -0.76360 15093 ft 368 kts 340°
2026-05-03 20:56 52.10216 -0.77641 15750 ft 372 kts 340°
2026-05-03 20:56 52.12690 -0.78928 16408 ft 375 kts 340°
2026-05-03 20:56 52.15191 -0.80229 17061 ft 379 kts 340°
2026-05-03 20:57 52.17709 -0.81545 17724 ft 382 kts 340°
2026-05-03 20:57 52.20255 -0.82881 18369 ft 386 kts 340°
2026-05-03 20:57 52.22820 -0.84232 18958 ft 390 kts 339°
2026-05-03 20:57 52.25335 -0.85901 19559 ft 391 kts 330°
2026-05-03 20:58 52.27686 -0.88154 20180 ft 393 kts 326°
2026-05-03 20:58 52.30028 -0.90489 20800 ft 396 kts 326°
2026-05-03 20:58 52.32393 -0.92846 21397 ft 400 kts 326°
2026-05-03 20:58 52.34776 -0.95222 21984 ft 403 kts 326°
2026-05-03 20:59 52.37181 -0.97619 22552 ft 407 kts 326°
2026-05-03 20:59 52.39606 -1.00041 23138 ft 410 kts 326°
2026-05-03 20:59 52.42051 -1.02489 23656 ft 413 kts 326°
2026-05-03 20:59 52.44509 -1.04954 24102 ft 416 kts 326°
2026-05-03 21:00 52.46994 -1.07447 24541 ft 420 kts 326°
2026-05-03 21:00 52.47830 -1.08285 24692 ft 421 kts 326°
2026-05-03 21:00 52.52011 -1.12486 25394 ft 426 kts 326°
2026-05-03 21:00 52.54541 -1.15035 25859 ft 428 kts 326°
2026-05-03 21:01 52.57088 -1.17600 26285 ft 431 kts 326°
2026-05-03 21:01 52.59652 -1.20179 26683 ft 434 kts 326°
2026-05-03 21:01 52.62233 -1.22777 27074 ft 437 kts 326°
2026-05-03 21:01 52.64835 -1.25406 27462 ft 440 kts 325°
2026-05-03 21:02 52.67451 -1.28059 27854 ft 443 kts 325°
2026-05-03 21:02 52.70081 -1.30733 28244 ft 446 kts 325°
2026-05-03 21:02 52.72732 -1.33433 28623 ft 449 kts 325°
2026-05-03 21:02 52.75404 -1.36158 29028 ft 453 kts 325°
2026-05-03 21:03 52.78089 -1.38898 29421 ft 455 kts 324°
2026-05-03 21:03 52.80786 -1.41655 29803 ft 457 kts 324°
2026-05-03 21:03 52.83499 -1.44431 30138 ft 460 kts 324°
2026-05-03 21:03 52.86226 -1.47222 30453 ft 463 kts 324°
2026-05-03 21:04 52.88970 -1.50034 30773 ft 465 kts 324°
2026-05-03 21:04 52.91727 -1.52865 31091 ft 467 kts 325°
2026-05-03 21:04 52.94480 -1.55700 31526 ft 465 kts 325°
2026-05-03 21:04 52.97227 -1.58536 31975 ft 464 kts 325°
2026-05-03 21:05 52.99962 -1.61366 32420 ft 463 kts 325°
2026-05-03 21:05 53.02693 -1.64194 32905 ft 461 kts 325°
2026-05-03 21:05 53.05413 -1.67012 33379 ft 460 kts 325°
2026-05-03 21:05 53.08124 -1.69826 33838 ft 460 kts 325°
2026-05-03 21:06 53.10838 -1.72646 34215 ft 459 kts 325°
2026-05-03 21:06 53.13544 -1.75459 34598 ft 459 kts 325°
2026-05-03 21:06 53.16249 -1.78274 34974 ft 458 kts 326°
2026-05-03 21:06 53.18945 -1.81087 35340 ft 457 kts 325°
2026-05-03 21:07 53.21639 -1.83909 35684 ft 457 kts 326°
2026-05-03 21:07 53.24333 -1.86726 35915 ft 457 kts 326°
2026-05-03 21:07 53.29815 -1.92091 35970 ft 456 kts 328°
2026-05-03 21:08 53.35370 -1.97218 35974 ft 456 kts 329°
2026-05-03 21:08 53.40908 -2.02380 35976 ft 456 kts 328°
2026-05-03 21:09 53.46407 -2.07684 35973 ft 454 kts 323°
2026-05-03 21:09 53.48769 -2.11119 35983 ft 449 kts 308°
2026-05-03 21:09 53.50504 -2.15437 35973 ft 444 kts 294°
2026-05-03 21:10 53.53160 -2.24814 35979 ft 445 kts 293°
2026-05-03 21:10 53.55796 -2.34224 35984 ft 445 kts 293°
2026-05-03 21:11 53.58002 -2.42126 35986 ft 445 kts 293°
2026-05-03 21:11 53.60633 -2.51574 35987 ft 446 kts 293°
2026-05-03 21:12 53.63258 -2.61013 35994 ft 445 kts 294°
2026-05-03 21:12 53.65865 -2.70415 35990 ft 446 kts 293°
2026-05-03 21:13 53.68468 -2.79904 35990 ft 446 kts 293°
2026-05-03 21:13 53.71070 -2.89399 36002 ft 446 kts 293°
2026-05-03 21:14 53.73662 -2.98901 36001 ft 445 kts 293°
2026-05-03 21:14 53.76249 -3.08401 36000 ft 445 kts 293°
2026-05-03 21:15 53.78812 -3.17856 36001 ft 445 kts 294°
2026-05-03 21:15 53.81374 -3.27386 36001 ft 445 kts 293°
2026-05-03 21:16 53.83940 -3.36986 35991 ft 445 kts 293°
2026-05-03 21:16 53.86501 -3.46532 36000 ft 445 kts 292°
2026-05-03 21:17 53.88618 -3.54476 36004 ft 445 kts 293°
2026-05-03 21:17 53.91579 -3.65664 36009 ft 445 kts 292°
2026-05-03 21:18 53.94106 -3.75251 35999 ft 445 kts 294°
2026-05-03 21:18 53.95364 -3.80051 35706 ft 444 kts 294°
2026-05-03 21:18 53.96738 -3.84728 34988 ft 444 kts 299°
2026-05-03 21:19 53.98266 -3.89273 33916 ft 452 kts 300°
2026-05-03 21:19 53.99857 -3.93953 32263 ft 453 kts 300°
2026-05-03 21:19 54.01436 -3.98580 30898 ft 451 kts 300°
2026-05-03 21:19 54.02980 -4.03124 30261 ft 434 kts 300°
2026-05-03 21:20 54.04446 -4.07476 29733 ft 415 kts 300°
2026-05-03 21:20 54.05851 -4.11660 29180 ft 399 kts 301°
2026-05-03 21:20 54.07368 -4.15541 28653 ft 392 kts 306°
2026-05-03 21:20 54.08921 -4.19274 28124 ft 391 kts 305°
2026-05-03 21:21 54.10507 -4.23098 27586 ft 390 kts 306°
2026-05-03 21:21 54.12066 -4.26875 27068 ft 389 kts 306°
2026-05-03 21:21 54.13595 -4.30592 26555 ft 388 kts 306°
2026-05-03 21:21 54.15168 -4.34412 26026 ft 388 kts 306°
2026-05-03 21:22 54.16714 -4.38169 25519 ft 388 kts 306°
2026-05-03 21:22 54.18245 -4.41888 25032 ft 387 kts 306°
2026-05-03 21:22 54.19796 -4.45650 24542 ft 387 kts 306°
2026-05-03 21:22 54.21364 -4.49456 24052 ft 387 kts 306°
2026-05-03 21:23 54.22889 -4.53178 23600 ft 387 kts 306°
2026-05-03 21:23 54.24448 -4.56990 23069 ft 386 kts 306°
2026-05-03 21:23 54.25958 -4.60692 22620 ft 382 kts 306°
2026-05-03 21:23 54.27491 -4.64452 22141 ft 379 kts 306°
2026-05-03 21:24 54.28993 -4.68144 21677 ft 376 kts 306°
2026-05-03 21:24 54.30481 -4.71802 21188 ft 373 kts 306°
2026-05-03 21:24 54.31941 -4.75389 20711 ft 371 kts 306°
2026-05-03 21:24 54.33408 -4.79002 20222 ft 368 kts 305°
2026-05-03 21:25 54.34861 -4.82595 19713 ft 366 kts 306°
2026-05-03 21:25 54.36303 -4.86166 19222 ft 363 kts 305°
2026-05-03 21:25 54.37736 -4.89727 18709 ft 361 kts 305°
2026-05-03 21:25 54.39177 -4.93314 18181 ft 359 kts 305°
2026-05-03 21:26 54.40568 -4.96787 17645 ft 357 kts 305°
2026-05-03 21:26 54.41985 -5.00323 17136 ft 353 kts 305°
2026-05-03 21:26 54.43371 -5.03778 16631 ft 350 kts 305°
2026-05-03 21:26 54.44745 -5.07197 16123 ft 347 kts 305°
2026-05-03 21:27 54.46115 -5.10591 15624 ft 344 kts 306°
2026-05-03 21:27 54.47480 -5.13958 15118 ft 342 kts 306°
2026-05-03 21:27 54.48821 -5.17328 14622 ft 341 kts 302°
2026-05-03 21:27 54.49800 -5.21040 14116 ft 341 kts 288°
2026-05-03 21:28 54.50240 -5.25033 13567 ft 342 kts 275°
2026-05-03 21:28 54.50120 -5.29117 13003 ft 342 kts 262°
2026-05-03 21:28 54.49757 -5.33146 12462 ft 340 kts 262°
2026-05-03 21:28 54.49399 -5.37159 11923 ft 339 kts 262°
2026-05-03 21:29 54.49045 -5.41160 11387 ft 337 kts 263°
2026-05-03 21:29 54.48695 -5.45139 10859 ft 336 kts 263°
2026-05-03 21:29 54.48346 -5.49108 10360 ft 335 kts 263°
2026-05-03 21:29 54.48001 -5.52991 10220 ft 322 kts 262°
2026-05-03 21:30 54.47668 -5.56717 10100 ft 310 kts 262°
2026-05-03 21:30 54.47343 -5.60320 9953 ft 300 kts 262°
2026-05-03 21:30 54.47024 -5.63838 9658 ft 296 kts 262°
2026-05-03 21:30 54.46710 -5.67309 9067 ft 292 kts 262°
2026-05-03 21:31 54.46397 -5.70755 8372 ft 291 kts 262°
2026-05-03 21:31 54.46086 -5.74168 7726 ft 288 kts 263°
2026-05-03 21:31 54.45777 -5.77551 7104 ft 285 kts 262°
2026-05-03 21:31 54.45470 -5.80890 6497 ft 282 kts 263°
2026-05-03 21:32 54.45168 -5.84198 5856 ft 279 kts 262°
2026-05-03 21:32 54.44867 -5.87465 5236 ft 276 kts 262°
2026-05-03 21:32 54.44564 -5.90702 4625 ft 273 kts 262°
2026-05-03 21:32 54.44268 -5.93844 4323 ft 258 kts 262°
2026-05-03 21:33 54.43992 -5.96770 4179 ft 238 kts 263°
2026-05-03 21:33 54.43874 -5.99465 4063 ft 215 kts 282°
2026-05-03 21:33 54.44378 -6.01712 3974 ft 195 kts 308°
2026-05-03 21:33 54.45345 -6.03258 3826 ft 189 kts 332°
2026-05-03 21:34 54.46572 -6.03950 3497 ft 183 kts 356°
2026-05-03 21:34 54.47773 -6.03713 3262 ft 172 kts 19°
2026-05-03 21:34 54.48814 -6.02725 3040 ft 167 kts 35°
2026-05-03 21:34 54.49763 -6.01600 2818 ft 164 kts 34°
2026-05-03 21:35 54.50671 -6.00524 2594 ft 157 kts 34°
2026-05-03 21:35 54.51535 -5.99499 2410 ft 143 kts 34°
2026-05-03 21:35 54.52328 -5.98557 2206 ft 132 kts 34°
2026-05-03 21:35 54.53072 -5.97672 2032 ft 128 kts 34°
2026-05-03 21:36 54.53793 -5.96815 1857 ft 127 kts 35°
2026-05-03 21:36 54.54528 -5.95941 1681 ft 126 kts 34°
2026-05-03 21:36 54.55241 -5.95092 1502 ft 127 kts 34°
2026-05-03 21:36 54.55966 -5.94228 1329 ft 127 kts 34°
2026-05-03 21:37 54.56689 -5.93366 1144 ft 126 kts 34°
2026-05-03 21:37 54.57417 -5.92499 965 ft 126 kts 35°
2026-05-03 21:37 54.58143 -5.91633 796 ft 127 kts 34°
2026-05-03 21:37 54.58859 -5.90778 624 ft 127 kts 34°
2026-05-03 21:38 54.59590 -5.89907 449 ft 127 kts 34°
2026-05-03 21:38 54.60315 -5.89041 276 ft 125 kts 34°
2026-05-03 21:38 54.61029 -5.88185 108 ft 127 kts 34°
2026-05-03 21:38 54.61727 -5.87353 20 ft 108 kts 34°
2026-05-03 21:39 54.62100 -5.86913 17 ft 21 kts 34°
2026-05-03 21:39 54.62260 -5.86718 21 ft 31 kts 36°
2026-05-03 21:39 54.62401 -5.86531 22 ft 19 kts 54°
2026-05-03 21:39 54.62461 -5.86497 21 ft 12 kts 261°
2026-05-03 21:40 54.62384 -5.86569 22 ft 14 kts 207°
2026-05-03 21:40 54.62286 -5.86678 20 ft 19 kts 215°
2026-05-03 21:40 54.62176 -5.86813 18 ft 22 kts 214°
2026-05-03 21:40 54.62036 -5.86980 17 ft 26 kts 214°
2026-05-03 21:41 54.61898 -5.87146 19 ft 16 kts 215°
2026-05-03 21:41 54.61807 -5.87109 18 ft 6 kts 125°
2026-05-03 21:41 54.61787 -5.87058 20 ft 6 kts 124°
2026-05-03 21:41 54.61754 -5.86999 21 ft 5 kts 154°
2026-05-03 21:42 54.61711 -5.87011 23 ft 8 kts 210°
2026-05-03 21:42 54.61656 -5.87074 21 ft 11 kts 214°
2026-05-03 21:42 54.61589 -5.87155 21 ft 11 kts 215°
2026-05-03 21:42 54.61535 -5.87173 21 ft 7 kts 159°
2026-05-03 21:43 54.61506 -5.87150 22 ft 2 kts 155°
2026-05-03 21:43 54.61503 -5.87147 24 ft 1 kts 156°
2026-05-03 21:43 54.61500 -5.87145 23 ft 0 kts 156°